This is the latest recevied weather packets stored in our database for station/object N8QF-1. If no packets are shown the sender has not sent any weather packets the latest 10 day(s).
| Time | Temp. | Humidity | Pressure | Rain* | Wind** | Luminosity | Snow |
|---|---|---|---|---|---|---|---|
| 1777997439 | 20° C | 62% | 1009.2 hPa | 0 mm | - | - | - |
| 1777996838 | 20° C | 62% | 1009 hPa | 0 mm | - | - | - |
| 1777996537 | 19.44° C | 62% | 1009 hPa | 0 mm | - | - | - |
| 1777996236 | 19.44° C | 62% | 1009.1 hPa | 0 mm | - | - | - |
| 1777995936 | 19.44° C | 63% | 1009 hPa | 0 mm | - | - | - |
| 1777995635 | 19.44° C | 65% | 1009 hPa | 0 mm | - | - | - |
| 1777995335 | 18.89° C | 64% | 1008.9 hPa | 0 mm | - | - | - |
| 1777994734 | 19.44° C | 66% | 1008.9 hPa | 0 mm | - | - | - |
| 1777994433 | 18.89° C | 66% | 1009 hPa | 0 mm | - | - | - |
| 1777994133 | 18.89° C | 67% | 1009 hPa | 0 mm | - | - | - |
| 1777993832 | 18.89° C | 67% | 1009 hPa | 0 mm | - | - | - |
| 1777992930 | 18.33° C | 70% | 1008.9 hPa | 0.25 mm | - | - | - |
| 1777992630 | 17.78° C | 71% | 1008.9 hPa | 0.25 mm | - | - | - |
| 1777992330 | 17.78° C | 73% | 1008.9 hPa | 0.25 mm | - | - | - |
| 1777992029 | 17.78° C | 73% | 1008.7 hPa | 0.25 mm | - | - | - |
| 1777991728 | 17.78° C | 76% | 1008.7 hPa | 0.25 mm | - | - | - |
| 1777991428 | 17.22° C | 75% | 1008.7 hPa | 0.25 mm | - | - | - |
| 1777991127 | 17.22° C | 77% | 1008.7 hPa | 0.25 mm | - | - | - |
| 1777990827 | 17.22° C | 79% | 1008.7 hPa | 0.25 mm | - | - | - |
| 1777990527 | 17.22° C | 81% | 1008.6 hPa | 0.25 mm | - | - | - |
| 1777989925 | 16.67° C | 82% | 1008.7 hPa | 0.25 mm | - | - | - |
| 1777989625 | 16.11° C | 82% | 1008.5 hPa | 0.25 mm | - | - | - |
| 1777989324 | 16.11° C | 82% | 1008.6 hPa | 0 mm | - | - | - |
| 1777989024 | 16.11° C | 82% | 1008.6 hPa | 0 mm | - | - | - |
| 1777988423 | 16.11° C | 83% | 1008.2 hPa | 0 mm | - | - | - |
* Rain latest hour (hover to see other rain measurements)
** Current wind speed in m/s (hover to see current wind gust speed)